QPF
0.00 0.00 0.00 0.00 0.00 0.00 0.00 0.00 0.00 0.00 0.00 0.01 0.00 0.00 0.00 0.00 0.00 0.00 0.00 0.00 0.00 0.01 0.01 0.01 0.03 0.06 0.01 0.00 0.00 0.00 0.00 0.02 0.04 0.02 0.00 0.00 0.00 0.00 0.00 0.01 0.01 0.00 0.00 0.04
0.00 0.00 0.00 0.00 0.00 0.00 0.00 0.00 0.00 0.00 0.00 0.00 0.00 0.00 0.00 0.00 0.00 0.00 0.00 0.01 0.01 0.00 0.00 0.00 0.01 0.03 0.00 0.00 0.00 0.01 0.01 0.04 0.06 0.07 0.04 0.02 0.01 0.00 0.00 0.01 0.01 0.00 0.00 0.03
0.00 0.00 0.00 0.00 0.00 0.00 0.00 0.00 0.00 0.00 0.00 0.00 0.00 0.00 0.00 0.00 0.00 0.00 0.00 0.01 0.00 0.00 0.01 0.00 0.00 0.02 0.00 0.00 0.00 0.00 0.01 0.03 0.03 0.02 0.01 0.01 0.02 0.01 0.00 0.00 0.01 0.01 0.00 0.00
0.00 0.00 0.00 0.00 0.00 0.00 0.00 0.00 0.00 0.00 0.00 0.00 0.00 0.00 0.00 0.00 0.00 0.00 0.00 0.01 0.02 0.01 0.02 0.00 0.01 0.00 0.00 0.00 0.00 0.00 0.00 0.01 0.01 0.01 0.01 0.01 0.02 0.01 0.00 0.01 0.00 0.00 0.00 0.00
0.00 0.00 0.00 0.00 0.00 0.00 0.00 0.00 0.00 0.00 0.00 0.00 0.00 0.00 0.00 0.00 0.00 0.00 0.00 0.00 0.00 0.02 0.01 0.01 0.00 0.01 0.01 0.01 0.00 0.00 0.00 0.00 0.00 0.00 0.00 0.00 0.00 0.00 0.00 0.00 0.00 0.00 0.00 0.02
0.00 0.00 0.00 0.00 0.00 0.00 0.00 0.00 0.00 0.00 0.00 0.00 0.00 0.00 0.00 0.00 0.00 0.00 0.00 0.00 0.00 0.00 0.00 0.00 0.00 0.00 0.00 0.00 0.00 0.00 0.00 0.00 0.00 0.00 0.00 0.00 0.00 0.00 0.00 0.00 0.00 0.00 0.01 0.03
0.00 0.00 0.00 0.00 0.00 0.00 0.00 0.00 0.00 0.00 0.00 0.00 0.00 0.00 0.00 0.00 0.00 0.00 0.00 0.00 0.00 0.00 0.00 0.00 0.00 0.00 0.00 0.00 0.00 0.00 0.00 0.00 0.00 0.00 0.00 0.00 0.00 0.00 0.00 0.00 0.00 0.00 0.00 0.00
0.00 0.00 0.00 0.00 0.00 0.00 0.00 0.00 0.00 0.00 0.00 0.00 0.00 0.00 0.00 0.00 0.00 0.00 0.00 0.00 0.00 0.00 0.00 0.00 0.00 0.00 0.00 0.00 0.00 0.00 0.00 0.00 0.00 0.00 0.00 0.00 0.01 0.00 0.00 0.00 0.00 0.00 0.00 0.00
0.00 0.00 0.00 0.00 0.00 0.01 0.00 0.00 0.00 0.00 0.01 0.00 0.00 0.00 0.00 0.00 0.00 0.00 0.00 0.00 0.00 0.00 0.00 0.00 0.00 0.00 0.00 0.00 0.00 0.00 0.00 0.00 0.00 0.00 0.00 0.01 0.01 0.00 0.00 0.00 0.01 0.00 0.00 0.00
0.00 0.00 0.00 0.00 0.00 0.01 0.00 0.00 0.00 0.00 0.01 0.00 0.00 0.00 0.00 0.00 0.00 0.00 0.00 0.00 0.00 0.00 0.00 0.01 0.00 0.01 0.00 0.00 0.00 0.00 0.00 0.00 0.00 0.00 0.00 0.01 0.00 0.00 0.00 0.01 0.01 0.00 0.00 0.00
0.00 0.00 0.00 0.00 0.00 0.01 0.02 0.01 0.00 0.00 0.01 0.00 0.00 0.00 0.00 0.00 0.00 0.00 0.00 0.00 0.00 0.00 0.00 0.01 0.00 0.01 0.01 0.02 0.01 0.01 0.01 0.02 0.01 0.01 0.01 0.01 0.00 0.00 0.00 0.00 0.00 0.00 0.00 0.00
0.01 0.00 0.00 0.00 0.00 0.00 0.02 0.01 0.00 0.00 0.01 0.00 0.00 0.00 0.00 0.00 0.00 0.00 0.00 0.00 0.01 0.01 0.01 0.00 0.01 0.02 0.01 0.01 0.04 0.01 0.01 0.01 0.01 0.01 0.00 0.00 0.00 0.00 0.00 0.00 0.00 0.00 0.00 0.00
0.00 0.00 0.00 0.00 0.00 0.01 0.01 0.01 0.00 0.00 0.00 0.00 0.00 0.00 0.00 0.00 0.00 0.00 0.00 0.00 0.01 0.02 0.01 0.00 0.00 0.03 0.01 0.01 0.03 0.01 0.00 0.00 0.00 0.01 0.00 0.00 0.00 0.00 0.00 0.00 0.00 0.00 0.00 0.00
0.01 0.00 0.00 0.00 0.00 0.01 0.02 0.00 0.00 0.00 0.00 0.01 0.01 0.00 0.00 0.00 0.00 0.00 0.00 0.00 0.01 0.01 0.00 0.01 0.01 0.02 0.01 0.01 0.02 0.00 0.00 0.00 0.00 0.01 0.00 0.00 0.00 0.00 0.00 0.00 0.00 0.00 0.00 0.00
0.00 0.00 0.00 0.00 0.00 0.00 0.04 0.03 0.00 0.00 0.01 0.02 0.02 0.01 0.00 0.00 0.00 0.00 0.00 0.00 0.00 0.00 0.00 0.02 0.03 0.02 0.00 0.02 0.02 0.00 0.00 0.00 0.00 0.01 0.00 0.00 0.00 0.00 0.00 0.00 0.00 0.00 0.00 0.00
0.00 0.00 0.00 0.00 0.00 0.01 0.01 0.00 0.00 0.00 0.00 0.01 0.03 0.03 0.00 0.00 0.00 0.00 0.00 0.00 0.00 0.00 0.01 0.02 0.02 0.01 0.00 0.01 0.03 0.00 0.00 0.00 0.00 0.00 0.00 0.00 0.00 0.00 0.00 0.00 0.00 0.00 0.00 0.00
0.00 0.00 0.00 0.00 0.01 0.02 0.00 0.00 0.00 0.00 0.00 0.00 0.01 0.02 0.00 0.00 0.00 0.00 0.00 0.00 0.00 0.03 0.03 0.02 0.01 0.01 0.00 0.01 0.01 0.00 0.00 0.00 0.00 0.00 0.00 0.00 0.00 0.00 0.00 0.00 0.00 0.00 0.00 0.00
0.00 0.00 0.00 0.00 0.01 0.01 0.01 0.01 0.00 0.00 0.00 0.00 0.01 0.01 0.00 0.00 0.00 0.00 0.00 0.00 0.00 0.01 0.01 0.01 0.01 0.01 0.00 0.00 0.00 0.00 0.00 0.00 0.00 0.00 0.00 0.00 0.00 0.00 0.00 0.00 0.00 0.00 0.00 0.00
0.00 0.00 0.00 0.01 0.00 0.00 0.00 0.00 0.00 0.00 0.00 0.01 0.00 0.01 0.02 0.00 0.01 0.00 0.00 0.01 0.02 0.01 0.01 0.00 0.02 0.01 0.01 0.00 0.00 0.00 0.00 0.00 0.00 0.00 0.00 0.00 0.00 0.00 0.00 0.00 0.00 0.00 0.00 0.00
0.00 0.01 0.00 0.00 0.00 0.00 0.00 0.00 0.00 0.00 0.00 0.01 0.01 0.01 0.01 0.00 0.00 0.01 0.01 0.02 0.03 0.02 0.00 0.00 0.01 0.00 0.00 0.00 0.00 0.00 0.00 0.00 0.00 0.00 0.00 0.00 0.00 0.00 0.00 0.00 0.00 0.00 0.00 0.00
0.02 0.00 0.00 0.01 0.00 0.00 0.00 0.00 0.00 0.00 0.00 0.00 0.00 0.00 0.01 0.00 0.01 0.02 0.02 0.01 0.02 0.01 0.02 0.01 0.01 0.00 0.00 0.00 0.00 0.00 0.00 0.00 0.00 0.00 0.00 0.00 0.00 0.00 0.00 0.00 0.00 0.00 0.00 0.00
0.00 0.00 0.01 0.00 0.00 0.00 0.01 0.01 0.02 0.01 0.00 0.00 0.00 0.00 0.01 0.01 0.02 0.04 0.02 0.01 0.01 0.01 0.02 0.02 0.01 0.00 0.00 0.00 0.00 0.00 0.00 0.00 0.00 0.00 0.00 0.00 0.00 0.00 0.00 0.00 0.00 0.00 0.00 0.00
0.00 0.00 0.00 0.00 0.00 0.01 0.01 0.01 0.00 0.00 0.00 0.00 0.00 0.00 0.00 0.01 0.01 0.01 0.00 0.00 0.01 0.02 0.02 0.02 0.00 0.00 0.00 0.00 0.00 0.00 0.00 0.00 0.00 0.00 0.00 0.00 0.00 0.00 0.00 0.00 0.00 0.00 0.00 0.00
0.00 0.00 0.01 0.01 0.01 0.00 0.00 0.00 0.00 0.00 0.00 0.00 0.00 0.00 0.00 0.00 0.00 0.00 0.03 0.01 0.01 0.01 0.01 0.00 0.00 0.00 0.00 0.00 0.00 0.00 0.00 0.00 0.00 0.00 0.00 0.00 0.00 0.00 0.00 0.00 0.00 0.00 0.00 0.00
0.00 0.00 0.02 0.00 0.00 0.00 0.00 0.00 0.00 0.00 0.00 0.00 0.01 0.00 0.00 0.00 0.00 0.00 0.01 0.00 0.01 0.00 0.01 0.00 0.00 0.00 0.00 0.00 0.00 0.00 0.00 0.00 0.00 0.00 0.00 0.00 0.00 0.00 0.00 0.00 0.00 0.00 0.00 0.00
0.00 0.00 0.00 0.00 0.00 0.00 0.00 0.00 0.01 0.00 0.01 0.01 0.01 0.01 0.00 0.00 0.00 0.00 0.00 0.01 0.02 0.01 0.00 0.00 0.00 0.00 0.00 0.00 0.00 0.00 0.00 0.00 0.00 0.00 0.00 0.00 0.00 0.00 0.00 0.00 0.00 0.00 0.00 0.00
0.00 0.00 0.00 0.00 0.00 0.00 0.00 0.00 0.00 0.00 0.01 0.01 0.01 0.00 0.00 0.00 0.00 0.00 0.00 0.00 0.00 0.00 0.00 0.00 0.00 0.00 0.00 0.00 0.00 0.00 0.00 0.00 0.00 0.00 0.00 0.00 0.00 0.00 0.00 0.00 0.00 0.00 0.00 0.00
MSLP
1020.21 1020.30 1020.08 1019.97 1020.03 1019.69 1019.66 1017.78 1016.64 1017.26 1017.35 1016.42 1015.21 1014.36 1014.08 1013.52 1013.02 1012.68 1012.39 1012.28 1011.70 1011.11 1009.88 1008.36 1006.49 1002.55 1000.10 999.64 999.81 999.98 1000.07 1000.29 1000.97 1001.21 1000.22 999.83 1000.07 1000.21 1000.71 1000.55 1000.51 1000.03 999.25 998.70
1020.02 1020.21 1019.97 1019.91 1019.95 1019.69 1018.44 1016.94 1016.36 1017.16 1016.99 1015.72 1014.81 1014.48 1013.94 1013.23 1013.04 1012.68 1012.47 1012.52 1012.26 1011.46 1010.02 1008.87 1006.80 1004.19 1002.42 1001.47 1000.84 1000.82 1000.58 1000.75 1001.07 1001.47 1001.00 1000.75 1000.53 1000.57 1001.07 1001.72 1001.47 1000.71 1000.03 999.92
1019.95 1019.89 1020.01 1020.01 1019.66 1019.79 1019.22 1017.89 1016.68 1016.16 1016.22 1016.50 1015.33 1014.69 1013.83 1013.30 1013.28 1013.13 1013.16 1013.03 1012.40 1011.16 1010.08 1009.20 1007.58 1005.67 1004.88 1003.54 1002.86 1002.48 1001.86 1001.29 1001.08 1000.39 999.81 1000.50 1000.80 1001.36 1001.80 1001.78 1001.78 1001.35 1000.81 1000.33
1019.55 1019.86 1019.91 1019.91 1019.66 1019.80 1019.50 1018.08 1017.00 1016.83 1016.02 1015.64 1015.69 1014.97 1014.00 1013.60 1013.79 1013.74 1013.18 1012.61 1011.66 1011.17 1010.27 1009.25 1008.11 1007.10 1006.00 1004.87 1004.47 1003.46 1002.80 1002.36 1002.35 1001.20 1000.51 1000.87 1001.35 1001.82 1002.11 1002.31 1002.55 1002.56 1002.30 1002.73
1019.59 1019.68 1019.65 1019.87 1019.84 1019.68 1018.74 1018.11 1016.47 1016.63 1015.97 1016.01 1015.51 1015.03 1014.32 1013.99 1013.96 1013.87 1013.00 1012.15 1011.53 1010.72 1010.47 1009.93 1009.11 1008.08 1007.23 1007.01 1006.01 1004.89 1004.12 1003.02 1002.55 1002.22 1001.97 1001.91 1002.17 1002.59 1002.90 1003.21 1003.44 1003.37 1003.49 1005.04
1019.20 1019.61 1019.60 1019.73 1019.74 1019.79 1018.17 1017.69 1017.55 1016.68 1016.00 1015.30 1015.03 1015.02 1014.74 1014.13 1013.64 1013.01 1012.81 1012.23 1011.54 1010.50 1010.47 1009.69 1009.14 1008.27 1007.83 1007.06 1006.29 1006.21 1005.31 1004.17 1003.46 1003.52 1003.28 1003.16 1003.32 1003.60 1003.40 1003.82 1005.36 1005.93 1006.84 1007.91
1019.14 1019.43 1019.39 1019.73 1019.67 1019.68 1018.48 1017.61 1017.13 1016.46 1015.58 1015.22 1015.16 1015.12 1014.64 1013.98 1013.57 1013.07 1012.23 1012.02 1011.63 1010.95 1010.28 1008.63 1007.67 1007.66 1006.96 1006.36 1005.94 1005.41 1004.83 1004.65 1003.79 1004.03 1004.16 1003.98 1004.83 1004.72 1004.95 1005.40 1007.31 1008.58 1009.43 1010.06
1018.93 1019.37 1019.23 1019.63 1019.60 1019.68 1019.04 1018.21 1017.92 1016.98 1016.41 1015.49 1015.36 1015.29 1014.66 1013.86 1013.30 1012.73 1012.41 1012.32 1012.13 1011.21 1009.66 1008.52 1007.26 1006.96 1006.88 1006.16 1006.10 1005.68 1005.30 1004.59 1004.57 1004.40 1004.31 1005.73 1006.28 1006.64 1006.76 1006.59 1009.40 1010.28 1010.73 1011.60
1018.85 1018.96 1019.21 1019.50 1019.54 1019.57 1019.56 1018.79 1018.89 1018.37 1017.45 1015.57 1016.04 1015.43 1014.83 1014.05 1013.37 1012.79 1012.46 1012.43 1012.07 1011.27 1009.58 1008.67 1007.79 1007.48 1006.99 1006.31 1005.81 1006.05 1005.87 1005.41 1005.10 1005.42 1005.93 1007.23 1008.86 1008.41 1008.37 1008.21 1010.83 1012.46 1012.55 1012.92
1018.39 1018.80 1019.24 1019.51 1019.54 1019.57 1019.91 1020.05 1019.95 1019.14 1018.13 1016.49 1016.50 1015.72 1015.67 1015.06 1014.36 1013.53 1012.74 1012.86 1012.24 1012.02 1010.79 1009.81 1009.05 1008.23 1007.93 1006.98 1006.57 1006.49 1006.43 1006.47 1006.47 1007.26 1007.84 1010.03 1012.08 1011.15 1009.69 1010.56 1014.54 1014.48 1014.39 1014.46
1018.30 1018.78 1019.17 1019.42 1019.54 1019.62 1019.62 1019.48 1019.66 1019.55 1018.80 1017.23 1016.84 1016.55 1016.20 1015.55 1014.89 1014.51 1014.13 1013.24 1013.11 1013.11 1012.20 1011.90 1011.48 1010.26 1009.37 1008.64 1008.21 1008.25 1008.27 1008.60 1008.55 1009.30 1010.53 1013.02 1014.20 1012.13 1013.37 1015.74 1015.99 1016.05 1016.07 1015.96
1018.20 1018.63 1018.95 1019.29 1019.42 1019.61 1019.76 1019.80 1019.88 1020.30 1019.69 1017.94 1017.67 1017.11 1016.73 1016.49 1016.16 1016.07 1015.02 1014.95 1014.67 1014.43 1013.97 1013.86 1013.22 1011.80 1010.67 1010.05 1009.19 1009.82 1010.37 1011.50 1011.91 1013.73 1015.02 1016.23 1016.70 1016.87 1017.33 1016.98 1017.01 1017.17 1017.02 1017.00
1017.98 1018.49 1018.82 1019.09 1019.34 1019.46 1019.74 1019.75 1020.03 1020.63 1020.17 1018.74 1016.91 1015.40 1015.54 1015.82 1016.28 1016.33 1015.85 1014.83 1015.12 1015.10 1015.28 1015.45 1014.34 1012.84 1011.80 1011.20 1011.11 1011.27 1012.45 1012.62 1013.60 1015.18 1016.58 1017.16 1017.55 1017.96 1018.21 1018.19 1018.19 1018.21 1018.02 1017.73
1017.76 1018.30 1018.56 1018.95 1019.18 1019.33 1019.57 1019.84 1020.14 1020.32 1020.00 1018.34 1016.04 1015.56 1015.63 1015.97 1016.05 1016.19 1016.31 1016.03 1015.84 1015.71 1015.14 1015.25 1014.50 1013.13 1012.55 1012.28 1012.45 1012.94 1013.70 1014.27 1015.53 1016.50 1017.45 1017.92 1018.52 1018.92 1019.01 1019.15 1018.98 1018.59 1018.37 1018.36
1017.57 1018.09 1018.42 1018.77 1018.94 1019.16 1019.23 1019.30 1019.64 1019.80 1019.75 1018.15 1016.32 1015.50 1015.46 1015.88 1016.02 1016.07 1016.26 1016.38 1016.26 1015.68 1015.12 1014.99 1014.31 1013.48 1013.28 1012.94 1013.29 1014.58 1015.36 1016.24 1016.62 1017.43 1018.34 1018.55 1019.43 1019.75 1019.82 1019.82 1019.80 1019.54 1019.11 1018.89
1017.39 1017.80 1018.16 1018.41 1018.66 1018.88 1019.35 1019.15 1019.17 1019.29 1019.57 1019.22 1016.88 1015.92 1015.60 1015.97 1016.00 1016.04 1016.16 1016.22 1016.06 1015.68 1015.45 1014.98 1014.30 1014.02 1014.50 1014.27 1014.38 1016.15 1017.09 1017.88 1018.17 1018.60 1019.08 1019.49 1020.13 1020.44 1020.57 1020.49 1020.45 1020.20 1020.07 1020.07
1017.15 1017.55 1017.87 1018.12 1018.39 1018.49 1018.25 1018.01 1017.51 1018.31 1019.22 1019.23 1017.59 1015.70 1016.23 1016.11 1016.08 1016.07 1016.19 1016.38 1016.28 1016.06 1015.81 1014.94 1014.45 1014.52 1014.99 1015.02 1015.36 1017.07 1017.97 1018.64 1019.06 1019.25 1019.52 1020.00 1020.31 1020.55 1020.86 1020.88 1020.75 1020.87 1021.03 1021.28
1017.06 1017.36 1017.64 1017.87 1017.83 1017.63 1017.84 1017.26 1017.51 1018.29 1018.90 1018.90 1017.58 1016.18 1016.10 1016.47 1016.13 1016.35 1016.43 1016.46 1016.56 1016.05 1015.41 1015.20 1014.85 1014.99 1015.21 1015.60 1016.42 1017.37 1018.39 1018.91 1019.42 1019.76 1020.11 1020.65 1021.20 1021.19 1021.19 1021.08 1021.11 1021.33 1021.82 1022.29
1016.93 1017.28 1017.56 1017.55 1017.53 1017.66 1017.12 1017.58 1018.10 1018.17 1018.69 1018.06 1017.32 1015.97 1015.84 1016.32 1016.47 1016.77 1016.77 1016.79 1016.36 1015.69 1015.58 1015.40 1014.73 1014.65 1015.33 1016.04 1016.43 1017.34 1018.24 1018.70 1019.24 1020.16 1020.71 1021.14 1021.40 1021.68 1021.82 1021.84 1022.00 1022.39 1023.10 1023.58
1016.83 1017.44 1017.41 1017.11 1016.89 1016.93 1017.34 1018.25 1018.34 1018.38 1018.20 1017.91 1016.52 1015.33 1015.67 1016.09 1016.35 1016.43 1016.72 1016.32 1015.74 1015.32 1015.30 1015.32 1015.37 1014.87 1016.49 1016.78 1017.10 1018.09 1018.96 1019.38 1019.65 1019.92 1020.47 1021.06 1021.64 1022.29 1022.76 1023.17 1023.57 1024.07 1024.57 1025.04
1016.73 1016.92 1016.51 1016.02 1016.47 1016.67 1016.96 1017.23 1017.27 1017.26 1017.12 1016.56 1015.58 1014.79 1015.05 1015.41 1015.38 1015.66 1015.95 1015.81 1015.57 1015.15 1014.71 1015.14 1015.28 1015.46 1017.12 1018.16 1018.73 1019.38 1019.86 1020.19 1020.39 1020.65 1021.25 1021.77 1022.13 1022.87 1023.58 1024.31 1024.90 1025.44 1026.04 1026.69
1016.18 1015.81 1015.94 1016.26 1016.16 1016.08 1015.96 1015.68 1015.49 1015.17 1014.22 1014.25 1014.55 1014.34 1014.49 1015.14 1015.26 1015.41 1015.78 1015.68 1015.74 1014.98 1015.04 1015.27 1015.16 1017.03 1018.11 1019.01 1019.77 1020.35 1020.78 1021.18 1021.62 1022.11 1022.72 1023.30 1023.75 1024.17 1024.79 1025.49 1026.27 1026.99 1027.64 1028.09
1015.90 1015.64 1015.45 1015.38 1015.25 1014.66 1013.92 1013.25 1013.10 1012.77 1012.67 1013.53 1013.98 1014.46 1014.96 1015.42 1015.61 1015.79 1015.84 1015.80 1015.31 1015.21 1015.10 1014.79 1016.07 1017.82 1019.02 1019.97 1020.72 1021.44 1022.09 1022.54 1022.95 1023.53 1024.07 1024.58 1025.04 1025.51 1026.15 1026.90 1027.45 1027.90 1028.57 1028.94
1015.60 1015.19 1014.62 1014.26 1013.42 1012.44 1011.52 1010.96 1011.15 1011.50 1012.23 1012.93 1013.79 1014.59 1014.90 1015.60 1015.73 1015.69 1015.61 1015.34 1015.22 1014.96 1014.66 1014.93 1017.00 1018.78 1020.02 1020.92 1021.81 1022.63 1023.45 1024.02 1024.37 1025.02 1025.64 1026.28 1026.90 1027.54 1028.18 1028.53 1028.89 1029.16 1029.50 1029.87
1015.52 1014.68 1013.10 1012.50 1011.98 1011.96 1011.85 1011.74 1011.60 1011.80 1012.27 1012.73 1013.74 1014.56 1014.97 1015.27 1015.39 1015.50 1015.32 1015.38 1014.72 1014.41 1014.57 1016.22 1018.06 1019.78 1021.10 1022.22 1023.13 1024.08 1024.87 1025.47 1025.86 1026.42 1027.00 1027.51 1027.93 1028.32 1028.79 1029.15 1029.38 1029.72 1029.96 1030.09
1015.20 1014.33 1013.11 1012.50 1012.19 1012.36 1012.36 1012.27 1012.14 1012.00 1012.33 1012.83 1012.92 1013.63 1014.14 1014.31 1014.24 1014.78 1014.54 1014.41 1014.16 1014.96 1016.21 1017.77 1019.47 1020.83 1022.04 1023.15 1024.13 1025.02 1025.64 1026.06 1026.58 1027.18 1027.64 1028.06 1028.42 1028.57 1028.92 1029.33 1029.61 1029.82 1029.99 1030.09
1014.82 1013.76 1013.55 1012.88 1012.01 1012.15 1012.58 1012.45 1012.58 1012.31 1012.29 1012.15 1012.20 1012.67 1013.06 1013.52 1013.75 1013.92 1013.71 1014.33 1015.36 1016.52 1017.92 1019.16 1020.39 1021.69 1022.94 1024.02 1024.89 1025.59 1026.03 1026.42 1026.88 1027.38 1027.85 1028.28 1028.56 1028.88 1028.73 1028.79 1029.22 1029.24 1029.69 1029.89
Thickness
5417 5419 5423 5425 5423 5425 5423 5438 5439 5427 5419 5424 5429 5428 5425 5425 5425 5428 5423 5420 5416 5416 5431 5443 5452 5501 5529 5536 5535 5533 5543 5540 5525 5529 5555 5566 5562 5562 5564 5563 5566 5578 5584 5588
5411 5413 5418 5418 5417 5419 5429 5442 5442 5424 5420 5426 5432 5432 5432 5437 5429 5430 5427 5412 5412 5420 5429 5439 5446 5492 5510 5519 5527 5529 5539 5532 5523 5517 5540 5549 5549 5561 5562 5555 5561 5567 5575 5579
5404 5409 5410 5410 5415 5412 5416 5422 5424 5432 5426 5416 5426 5425 5434 5435 5434 5429 5424 5414 5415 5430 5434 5431 5447 5475 5486 5501 5509 5512 5525 5532 5535 5540 5551 5551 5545 5548 5553 5558 5554 5562 5575 5583
5401 5402 5403 5405 5408 5406 5408 5416 5419 5418 5419 5423 5417 5424 5436 5434 5419 5424 5429 5423 5441 5430 5431 5437 5446 5455 5479 5494 5496 5510 5518 5517 5520 5540 5552 5552 5546 5544 5547 5547 5551 5549 5562 5564
5392 5396 5399 5398 5399 5401 5413 5399 5427 5421 5425 5418 5419 5417 5429 5429 5427 5420 5423 5439 5446 5450 5444 5440 5441 5455 5465 5459 5481 5494 5506 5516 5527 5526 5538 5541 5537 5539 5539 5541 5546 5556 5563 5542
5389 5389 5393 5392 5393 5394 5410 5412 5410 5417 5414 5426 5425 5418 5419 5425 5434 5440 5440 5441 5442 5452 5443 5450 5452 5466 5471 5478 5483 5474 5486 5507 5516 5509 5524 5527 5523 5525 5535 5539 5523 5529 5522 5518
5382 5384 5387 5386 5388 5388 5399 5408 5411 5414 5418 5424 5420 5416 5421 5428 5432 5433 5445 5441 5439 5447 5451 5464 5474 5473 5482 5488 5491 5497 5500 5504 5519 5511 5514 5513 5514 5525 5526 5521 5509 5503 5497 5493
5377 5377 5382 5380 5382 5382 5388 5395 5397 5406 5402 5418 5414 5411 5416 5428 5434 5440 5440 5439 5439 5449 5461 5467 5479 5482 5478 5488 5490 5494 5501 5509 5507 5512 5523 5513 5507 5506 5507 5514 5482 5492 5491 5479
5371 5375 5375 5374 5376 5377 5379 5385 5384 5387 5391 5415 5403 5407 5413 5420 5428 5435 5440 5440 5441 5449 5468 5473 5478 5477 5482 5487 5497 5499 5500 5507 5513 5514 5513 5504 5481 5497 5502 5509 5480 5466 5473 5468
5368 5369 5367 5367 5370 5372 5371 5370 5370 5377 5381 5403 5397 5404 5400 5407 5414 5423 5436 5430 5437 5443 5456 5466 5474 5479 5482 5486 5490 5492 5496 5499 5503 5503 5511 5490 5442 5466 5494 5496 5448 5441 5451 5454
5361 5361 5361 5362 5364 5366 5367 5370 5367 5370 5375 5392 5392 5392 5391 5399 5408 5408 5417 5428 5428 5426 5439 5443 5444 5459 5470 5475 5482 5479 5482 5478 5492 5499 5499 5480 5424 5476 5462 5426 5421 5425 5427 5434
5354 5355 5357 5357 5360 5360 5361 5362 5362 5359 5365 5382 5379 5382 5384 5386 5390 5390 5405 5403 5408 5414 5418 5421 5426 5442 5460 5464 5461 5471 5462 5449 5452 5434 5425 5406 5406 5407 5405 5417 5417 5415 5419 5421
5349 5350 5351 5353 5354 5356 5357 5359 5357 5352 5355 5369 5385 5397 5392 5388 5385 5386 5393 5407 5404 5405 5406 5398 5414 5426 5449 5446 5450 5454 5439 5451 5436 5423 5406 5404 5405 5403 5402 5404 5403 5404 5407 5412
5345 5345 5347 5348 5350 5352 5352 5353 5352 5352 5354 5369 5391 5391 5389 5385 5384 5384 5384 5388 5392 5396 5407 5399 5410 5427 5441 5438 5441 5436 5433 5431 5409 5407 5402 5403 5396 5392 5392 5391 5394 5400 5403 5402
5340 5340 5342 5344 5347 5348 5349 5352 5352 5352 5357 5371 5385 5393 5390 5385 5384 5384 5383 5382 5384 5393 5399 5400 5408 5425 5428 5436 5435 5412 5415 5403 5411 5406 5391 5395 5383 5382 5383 5382 5382 5386 5392 5395
5334 5336 5338 5341 5343 5345 5344 5345 5352 5352 5352 5354 5378 5388 5389 5384 5384 5384 5383 5383 5386 5392 5392 5399 5410 5416 5411 5413 5421 5396 5390 5384 5385 5384 5381 5378 5373 5371 5371 5372 5373 5377 5379 5379
5328 5331 5334 5338 5340 5343 5350 5358 5362 5356 5350 5351 5368 5390 5379 5382 5384 5384 5383 5381 5381 5384 5385 5397 5406 5406 5404 5407 5417 5382 5378 5375 5373 5376 5376 5372 5371 5369 5366 5367 5369 5368 5367 5364
5322 5326 5330 5334 5339 5344 5347 5356 5356 5352 5349 5349 5369 5383 5381 5378 5380 5376 5380 5378 5377 5383 5390 5393 5398 5399 5400 5395 5388 5383 5373 5373 5369 5368 5367 5360 5356 5358 5360 5363 5363 5361 5356 5351
5317 5321 5325 5331 5336 5338 5350 5349 5347 5348 5349 5357 5364 5381 5379 5378 5374 5371 5374 5373 5374 5388 5380 5382 5399 5404 5397 5387 5392 5385 5377 5376 5372 5362 5357 5353 5353 5351 5351 5352 5351 5348 5340 5336
5309 5313 5320 5328 5336 5342 5343 5338 5340 5342 5344 5352 5369 5390 5376 5377 5371 5372 5370 5377 5381 5381 5383 5384 5382 5404 5374 5380 5383 5375 5368 5366 5366 5365 5360 5355 5349 5342 5338 5334 5331 5327 5323 5319
5303 5309 5323 5334 5335 5339 5341 5344 5347 5346 5350 5361 5374 5390 5381 5382 5379 5379 5380 5378 5382 5380 5390 5382 5387 5397 5363 5360 5359 5358 5357 5356 5356 5355 5349 5344 5342 5335 5328 5320 5315 5311 5304 5297
5305 5318 5322 5326 5333 5340 5347 5354 5359 5366 5382 5385 5376 5383 5387 5378 5382 5380 5377 5375 5375 5378 5386 5383 5399 5359 5357 5353 5350 5349 5348 5346 5342 5338 5332 5327 5323 5319 5313 5307 5298 5289 5281 5275
5301 5313 5324 5331 5337 5352 5359 5363 5376 5386 5394 5382 5378 5371 5373 5373 5374 5370 5372 5366 5376 5383 5379 5398 5379 5358 5352 5348 5345 5340 5336 5332 5328 5322 5317 5312 5307 5302 5296 5287 5279 5273 5264 5258
5305 5316 5334 5339 5352 5370 5388 5404 5403 5398 5389 5383 5374 5365 5372 5363 5365 5371 5371 5380 5381 5383 5395 5406 5367 5351 5345 5341 5334 5327 5318 5313 5311 5304 5298 5290 5283 5274 5268 5264 5258 5253 5246 5238
5304 5320 5350 5356 5368 5367 5373 5378 5385 5385 5383 5380 5370 5365 5367 5363 5365 5366 5376 5374 5390 5401 5412 5379 5358 5343 5334 5326 5319 5309 5302 5297 5295 5289 5281 5274 5268 5263 5256 5250 5245 5237 5230 5224
5306 5317 5339 5349 5361 5358 5366 5365 5369 5378 5378 5377 5382 5373 5369 5371 5384 5374 5385 5399 5409 5397 5376 5358 5344 5335 5327 5318 5310 5301 5296 5293 5286 5278 5272 5266 5259 5255 5249 5240 5232 5225 5217 5209
5306 5324 5328 5342 5364 5366 5362 5367 5363 5372 5376 5378 5387 5378 5381 5388 5388 5390 5405 5402 5379 5365 5353 5347 5339 5329 5318 5308 5300 5293 5290 5286 5281 5274 5266 5258 5251 5243 5241 5236 5224 5217 5204 5193